PRNPB SBMT-SDYJ

Flight info

Callsign PRNPB
Flight time 1h 56m
Altitude FL060
Route VUSMU SBBU MISOA TOPUX SDYJ
Aircraft B429/L-S/N

Departure

Time 2026-05-03 22:58
Airport Campo de Marte Airport (SBMT)

Arrival

Time 2026-05-04 00:54
Airport José Martins da Silva Airport (SDYJ)
Time Latitude Longitude Altitude Speed Heading
2026-05-03 22:46 -23.51536 -46.63665 2371 ft 0 kts 251°
2026-05-03 22:53 -23.51539 -46.63675 2431 ft 4 kts 251°
2026-05-03 22:54 -23.51541 -46.63699 2418 ft 8 kts 318°
2026-05-03 22:54 -23.51538 -46.63725 2397 ft 11 kts 37°
2026-05-03 22:54 -23.51497 -46.63654 2451 ft 6 kts 70°
2026-05-03 22:54 -23.51478 -46.63585 2464 ft 12 kts 72°
2026-05-03 22:55 -23.51451 -46.63484 2480 ft 13 kts 73°
2026-05-03 22:55 -23.51428 -46.63396 2466 ft 11 kts 66°
2026-05-03 22:55 -23.51403 -46.63339 2415 ft 10 kts 29°
2026-05-03 22:55 -23.51300 -46.63310 2444 ft 22 kts
2026-05-03 22:56 -23.51139 -46.63309 2491 ft 24 kts 353°
2026-05-03 22:56 -23.50991 -46.63469 2512 ft 38 kts 288°
2026-05-03 22:56 -23.50863 -46.63874 2502 ft 66 kts 285°
2026-05-03 22:56 -23.50741 -46.64349 2606 ft 70 kts 286°
2026-05-03 22:57 -23.50599 -46.64915 2606 ft 81 kts 285°
2026-05-03 22:57 -23.50446 -46.65525 2654 ft 84 kts 285°
2026-05-03 22:57 -23.50300 -46.66109 2788 ft 76 kts 284°
2026-05-03 22:57 -23.50183 -46.66628 2951 ft 65 kts 284°
2026-05-03 22:58 -23.50086 -46.67052 3126 ft 51 kts 284°
2026-05-03 22:58 -23.50017 -46.67351 3274 ft 32 kts 284°
2026-05-03 22:58 -23.49987 -46.67481 3339 ft 0 kts 284°
2026-05-03 22:58 -23.50044 -46.67384 3233 ft 3 kts 128°
2026-05-03 22:59 -23.49943 -46.67541 3014 ft 42 kts 320°
2026-05-03 22:59 -23.49776 -46.67925 2986 ft 70 kts 289°
2026-05-03 22:59 -23.49670 -46.68521 2947 ft 89 kts 281°
2026-05-03 22:59 -23.49592 -46.69118 3112 ft 80 kts 278°
2026-05-03 23:00 -23.49538 -46.69489 3426 ft 29 kts 277°
2026-05-03 23:00 -23.49517 -46.69637 3496 ft 21 kts 267°
2026-05-03 23:00 -23.49536 -46.69876 3482 ft 46 kts 263°
2026-05-03 23:00 -23.49468 -46.70080 3599 ft 24 kts 321°
2026-05-03 23:01 -23.49385 -46.70102 3585 ft 15 kts 318°
2026-05-03 23:01 -23.49527 -46.70262 3555 ft 23 kts 212°
2026-05-03 23:01 -23.49524 -46.70450 3497 ft 37 kts 297°
2026-05-03 23:01 -23.49366 -46.70706 3452 ft 64 kts 283°
2026-05-03 23:02 -23.49296 -46.71269 3419 ft 73 kts 284°
2026-05-03 23:02 -23.49024 -46.71686 3583 ft 68 kts 314°
2026-05-03 23:02 -23.48829 -46.72183 3577 ft 80 kts 277°
2026-05-03 23:02 -23.48710 -46.72851 3477 ft 99 kts 283°
2026-05-03 23:03 -23.48565 -46.73627 3391 ft 107 kts 279°
2026-05-03 23:03 -23.48456 -46.74412 3407 ft 103 kts 277°
2026-05-03 23:03 -23.48382 -46.75151 3468 ft 97 kts 275°
2026-05-03 23:03 -23.48326 -46.75979 3924 ft 128 kts 273°
2026-05-03 23:04 -23.48280 -46.77056 4018 ft 151 kts 272°
2026-05-03 23:04 -23.48254 -46.78210 4080 ft 154 kts 271°
2026-05-03 23:04 -23.48247 -46.79375 4151 ft 154 kts 270°
2026-05-03 23:04 -23.48251 -46.80516 4224 ft 154 kts 269°
2026-05-03 23:05 -23.48263 -46.81702 4299 ft 154 kts 269°
2026-05-03 23:05 -23.48278 -46.82864 4373 ft 154 kts 269°
2026-05-03 23:05 -23.48295 -46.84027 4448 ft 154 kts 269°
2026-05-03 23:05 -23.48312 -46.85190 4522 ft 154 kts 269°
2026-05-03 23:06 -23.48328 -46.86351 4596 ft 154 kts 269°
2026-05-03 23:06 -23.48342 -46.87510 4670 ft 154 kts 269°
2026-05-03 23:06 -23.48354 -46.88669 4744 ft 154 kts 269°
2026-05-03 23:06 -23.48363 -46.89829 4819 ft 153 kts 269°
2026-05-03 23:07 -23.48370 -46.90964 4891 ft 153 kts 269°
2026-05-03 23:07 -23.48288 -46.92141 4956 ft 154 kts 283°
2026-05-03 23:07 -23.47878 -46.93209 5038 ft 153 kts 296°
2026-05-03 23:07 -23.47388 -46.94233 5115 ft 153 kts 298°
2026-05-03 23:08 -23.46872 -46.95249 5189 ft 153 kts 299°
2026-05-03 23:08 -23.46350 -46.96258 5264 ft 153 kts 299°
2026-05-03 23:08 -23.45825 -46.97264 5338 ft 153 kts 299°
2026-05-03 23:08 -23.45299 -46.98267 5412 ft 153 kts 300°
2026-05-03 23:09 -23.44773 -46.99269 5486 ft 153 kts 300°
2026-05-03 23:09 -23.44245 -47.00273 5560 ft 153 kts 300°
2026-05-03 23:09 -23.43716 -47.01280 5635 ft 153 kts 300°
2026-05-03 23:09 -23.43189 -47.02280 5709 ft 153 kts 300°
2026-05-03 23:10 -23.42662 -47.03284 5783 ft 152 kts 300°
2026-05-03 23:10 -23.42146 -47.04278 5857 ft 151 kts 300°
2026-05-03 23:10 -23.41636 -47.05272 5931 ft 150 kts 300°
2026-05-03 23:10 -23.41132 -47.06257 5991 ft 149 kts 300°
2026-05-03 23:11 -23.40626 -47.07242 6009 ft 149 kts 300°
2026-05-03 23:11 -23.40116 -47.08227 6008 ft 150 kts 301°
2026-05-03 23:11 -23.39604 -47.09210 6004 ft 150 kts 301°
2026-05-03 23:11 -23.39090 -47.10192 6001 ft 150 kts 301°
2026-05-03 23:12 -23.38576 -47.11170 6000 ft 149 kts 301°
2026-05-03 23:12 -23.38062 -47.12148 6000 ft 148 kts 301°
2026-05-03 23:12 -23.37554 -47.13111 6000 ft 147 kts 301°
2026-05-03 23:12 -23.37046 -47.14074 6000 ft 147 kts 301°
2026-05-03 23:13 -23.36536 -47.15037 6001 ft 147 kts 301°
2026-05-03 23:13 -23.36031 -47.15994 6000 ft 147 kts 301°
2026-05-03 23:13 -23.35522 -47.16956 6000 ft 147 kts 301°
2026-05-03 23:13 -23.35013 -47.17919 6000 ft 147 kts 301°
2026-05-03 23:14 -23.34505 -47.18881 6000 ft 147 kts 301°
2026-05-03 23:14 -23.33997 -47.19842 6000 ft 147 kts 301°
2026-05-03 23:14 -23.33491 -47.20799 6000 ft 147 kts 301°
2026-05-03 23:14 -23.32982 -47.21762 6000 ft 147 kts 301°
2026-05-03 23:15 -23.32475 -47.22722 6000 ft 147 kts 301°
2026-05-03 23:15 -23.31966 -47.23685 6000 ft 147 kts 301°
2026-05-03 23:15 -23.31457 -47.24647 6000 ft 147 kts 301°
2026-05-03 23:15 -23.30949 -47.25607 6000 ft 147 kts 301°
2026-05-03 23:16 -23.30441 -47.26567 6000 ft 147 kts 301°
2026-05-03 23:16 -23.29931 -47.27531 6000 ft 147 kts 301°
2026-05-03 23:16 -23.29423 -47.28491 6000 ft 147 kts 301°
2026-05-03 23:16 -23.28913 -47.29454 6000 ft 147 kts 301°
2026-05-03 23:17 -23.28405 -47.30414 6000 ft 147 kts 301°
2026-05-03 23:17 -23.27896 -47.31375 6000 ft 147 kts 301°
2026-05-03 23:17 -23.27386 -47.32338 6000 ft 147 kts 301°
2026-05-03 23:17 -23.26876 -47.33301 6000 ft 147 kts 301°
2026-05-03 23:18 -23.26365 -47.34265 6000 ft 147 kts 301°
2026-05-03 23:18 -23.25858 -47.35222 6000 ft 147 kts 301°
2026-05-03 23:18 -23.25347 -47.36184 6000 ft 147 kts 301°
2026-05-03 23:18 -23.24835 -47.37149 6000 ft 147 kts 301°
2026-05-03 23:19 -23.24328 -47.38105 6000 ft 147 kts 301°
2026-05-03 23:19 -23.23818 -47.39067 6000 ft 147 kts 301°
2026-05-03 23:19 -23.23310 -47.40024 6000 ft 147 kts 301°
2026-05-03 23:19 -23.22799 -47.40988 6000 ft 147 kts 301°
2026-05-03 23:20 -23.22290 -47.41947 6000 ft 147 kts 301°
2026-05-03 23:20 -23.21778 -47.42911 6000 ft 147 kts 301°
2026-05-03 23:20 -23.21269 -47.43869 6000 ft 147 kts 301°
2026-05-03 23:20 -23.20760 -47.44828 6000 ft 147 kts 301°
2026-05-03 23:21 -23.20251 -47.45787 6000 ft 147 kts 301°
2026-05-03 23:21 -23.19739 -47.46749 6000 ft 147 kts 301°
2026-05-03 23:21 -23.19230 -47.47706 6000 ft 147 kts 301°
2026-05-03 23:21 -23.18720 -47.48666 6000 ft 147 kts 301°
2026-05-03 23:22 -23.17701 -47.50583 6000 ft 147 kts 301°
2026-05-03 23:22 -23.17192 -47.51541 6000 ft 147 kts 301°
2026-05-03 23:22 -23.16681 -47.52501 6000 ft 147 kts 301°
2026-05-03 23:23 -23.16171 -47.53459 6000 ft 147 kts 301°
2026-05-03 23:23 -23.15663 -47.54414 6000 ft 147 kts 301°
2026-05-03 23:23 -23.15153 -47.55374 6000 ft 147 kts 301°
2026-05-03 23:23 -23.14641 -47.56335 6000 ft 147 kts 301°
2026-05-03 23:24 -23.14132 -47.57292 6000 ft 147 kts 301°
2026-05-03 23:24 -23.13621 -47.58251 6000 ft 147 kts 301°
2026-05-03 23:24 -23.13108 -47.59216 6000 ft 147 kts 301°
2026-05-03 23:24 -23.12597 -47.60176 6000 ft 147 kts 301°
2026-05-03 23:25 -23.12087 -47.61134 6000 ft 147 kts 301°
2026-05-03 23:25 -23.11576 -47.62093 6000 ft 147 kts 301°
2026-05-03 23:25 -23.11062 -47.63057 6000 ft 147 kts 301°
2026-05-03 23:25 -23.10551 -47.64016 6000 ft 147 kts 301°
2026-05-03 23:26 -23.10040 -47.64974 6000 ft 147 kts 301°
2026-05-03 23:26 -23.09529 -47.65933 6000 ft 147 kts 301°
2026-05-03 23:26 -23.09015 -47.66895 6000 ft 147 kts 301°
2026-05-03 23:26 -23.08504 -47.67854 6000 ft 147 kts 301°
2026-05-03 23:27 -23.07992 -47.68813 6000 ft 147 kts 301°
2026-05-03 23:27 -23.07482 -47.69771 6000 ft 147 kts 301°
2026-05-03 23:27 -23.06969 -47.70730 6000 ft 147 kts 301°
2026-05-03 23:27 -23.06456 -47.71692 6000 ft 147 kts 301°
2026-05-03 23:28 -23.05942 -47.72654 6000 ft 147 kts 301°
2026-05-03 23:28 -23.05430 -47.73614 6000 ft 147 kts 301°
2026-05-03 23:28 -23.04918 -47.74572 6000 ft 147 kts 301°
2026-05-03 23:28 -23.04405 -47.75533 6000 ft 147 kts 301°
2026-05-03 23:29 -23.03891 -47.76494 6000 ft 147 kts 301°
2026-05-03 23:29 -23.03378 -47.77454 6000 ft 147 kts 301°
2026-05-03 23:29 -23.02866 -47.78411 6000 ft 147 kts 301°
2026-05-03 23:29 -23.02354 -47.79370 6000 ft 147 kts 301°
2026-05-03 23:30 -23.01840 -47.80332 6000 ft 147 kts 301°
2026-05-03 23:30 -23.01332 -47.81281 6000 ft 147 kts 301°
2026-05-03 23:30 -23.00814 -47.82251 6000 ft 148 kts 301°
2026-05-03 23:30 -23.00297 -47.83218 6000 ft 148 kts 301°
2026-05-03 23:31 -22.99782 -47.84182 6000 ft 148 kts 301°
2026-05-03 23:31 -22.99267 -47.85145 6000 ft 148 kts 301°
2026-05-03 23:31 -22.98751 -47.86109 6000 ft 148 kts 301°
2026-05-03 23:31 -22.98236 -47.87071 6028 ft 148 kts 301°
2026-05-03 23:32 -22.97709 -47.88052 6098 ft 152 kts 301°
2026-05-03 23:32 -22.97175 -47.89042 5965 ft 151 kts 301°
2026-05-03 23:32 -22.96650 -47.90022 5942 ft 149 kts 301°
2026-05-03 23:32 -22.96136 -47.90987 5969 ft 148 kts 301°
2026-05-03 23:33 -22.95619 -47.91954 5991 ft 148 kts 301°
2026-05-03 23:33 -22.95105 -47.92914 6001 ft 148 kts 301°
2026-05-03 23:33 -22.94589 -47.93877 6003 ft 148 kts 301°
2026-05-03 23:33 -22.94074 -47.94837 6002 ft 148 kts 301°
2026-05-03 23:34 -22.93556 -47.95802 6001 ft 148 kts 301°
2026-05-03 23:34 -22.93040 -47.96764 6000 ft 148 kts 301°
2026-05-03 23:34 -22.92524 -47.97727 6000 ft 148 kts 301°
2026-05-03 23:34 -22.92008 -47.98687 6000 ft 148 kts 301°
2026-05-03 23:35 -22.91490 -47.99653 6000 ft 148 kts 301°
2026-05-03 23:35 -22.90975 -48.00613 6000 ft 148 kts 301°
2026-05-03 23:35 -22.90458 -48.01574 6000 ft 148 kts 301°
2026-05-03 23:35 -22.89940 -48.02538 6000 ft 148 kts 301°
2026-05-03 23:36 -22.89424 -48.03499 6000 ft 148 kts 301°
2026-05-03 23:36 -22.88906 -48.04464 6000 ft 148 kts 301°
2026-05-03 23:36 -22.88390 -48.05425 5994 ft 148 kts 302°
2026-05-03 23:36 -22.87869 -48.06396 6072 ft 151 kts 301°
2026-05-03 23:37 -22.87337 -48.07381 6056 ft 152 kts 302°
2026-05-03 23:37 -22.86808 -48.08365 5950 ft 150 kts 301°
2026-05-03 23:37 -22.86286 -48.09337 5957 ft 149 kts 301°
2026-05-03 23:37 -22.85766 -48.10307 5982 ft 148 kts 301°
2026-05-03 23:38 -22.85249 -48.11270 5997 ft 148 kts 301°
2026-05-03 23:38 -22.84728 -48.12239 6002 ft 149 kts 301°
2026-05-03 23:38 -22.84209 -48.13203 6002 ft 149 kts 301°
2026-05-03 23:38 -22.83688 -48.14171 6001 ft 149 kts 301°
2026-05-03 23:39 -22.83166 -48.15141 6000 ft 149 kts 301°
2026-05-03 23:39 -22.82646 -48.16107 6000 ft 149 kts 301°
2026-05-03 23:39 -22.82125 -48.17074 6000 ft 149 kts 301°
2026-05-03 23:39 -22.81603 -48.18043 5986 ft 148 kts 302°
2026-05-03 23:40 -22.81078 -48.19015 6074 ft 151 kts 301°
2026-05-03 23:40 -22.80544 -48.20002 6020 ft 152 kts 301°
2026-05-03 23:40 -22.80015 -48.20985 5951 ft 150 kts 301°
2026-05-03 23:40 -22.79493 -48.21955 5965 ft 149 kts 301°
2026-05-03 23:41 -22.78972 -48.22923 5987 ft 149 kts 301°
2026-05-03 23:41 -22.78450 -48.23892 5999 ft 149 kts 301°
2026-05-03 23:41 -22.77932 -48.24852 6002 ft 149 kts 301°
2026-05-03 23:41 -22.77411 -48.25818 6002 ft 149 kts 301°
2026-05-03 23:42 -22.76889 -48.26785 6001 ft 149 kts 301°
2026-05-03 23:42 -22.76369 -48.27749 6000 ft 149 kts 301°
2026-05-03 23:42 -22.75846 -48.28717 6000 ft 149 kts 301°
2026-05-03 23:42 -22.75327 -48.29679 6000 ft 148 kts 301°
2026-05-03 23:43 -22.74810 -48.30636 6000 ft 148 kts 301°
2026-05-03 23:43 -22.74287 -48.31603 6000 ft 148 kts 301°
2026-05-03 23:43 -22.73767 -48.32566 6000 ft 148 kts 301°
2026-05-03 23:43 -22.73247 -48.33528 6000 ft 148 kts 301°
2026-05-03 23:44 -22.72729 -48.34485 6000 ft 148 kts 301°
2026-05-03 23:44 -22.72209 -48.35448 6000 ft 148 kts 301°
2026-05-03 23:44 -22.71688 -48.36411 6000 ft 148 kts 301°
2026-05-03 23:44 -22.71168 -48.37372 6000 ft 148 kts 301°
2026-05-03 23:45 -22.70649 -48.38333 6000 ft 148 kts 301°
2026-05-03 23:45 -22.70130 -48.39291 6000 ft 148 kts 301°
2026-05-03 23:45 -22.69610 -48.40253 6000 ft 148 kts 301°
2026-05-03 23:45 -22.69090 -48.41214 6000 ft 148 kts 301°
2026-05-03 23:46 -22.68569 -48.42176 6000 ft 148 kts 301°
2026-05-03 23:46 -22.68051 -48.43134 6000 ft 148 kts 301°
2026-05-03 23:46 -22.67532 -48.44093 6000 ft 148 kts 301°
2026-05-03 23:46 -22.67015 -48.45048 6000 ft 148 kts 301°
2026-05-03 23:47 -22.66492 -48.46012 6000 ft 148 kts 301°
2026-05-03 23:47 -22.65971 -48.46972 6000 ft 148 kts 301°
2026-05-03 23:47 -22.65452 -48.47930 6000 ft 148 kts 301°
2026-05-03 23:47 -22.64935 -48.48884 6000 ft 148 kts 301°
2026-05-03 23:48 -22.64415 -48.49842 6000 ft 148 kts 301°
2026-05-03 23:48 -22.63898 -48.50795 6000 ft 148 kts 301°
2026-05-03 23:48 -22.63379 -48.51752 6000 ft 147 kts 301°
2026-05-03 23:48 -22.62859 -48.52707 6000 ft 147 kts 301°
2026-05-03 23:49 -22.62343 -48.53655 6000 ft 147 kts 301°
2026-05-03 23:49 -22.61830 -48.54598 6000 ft 147 kts 301°
2026-05-03 23:49 -22.61311 -48.55551 6000 ft 147 kts 301°
2026-05-03 23:49 -22.60796 -48.56500 6000 ft 147 kts 301°
2026-05-03 23:50 -22.60282 -48.57446 6000 ft 147 kts 301°
2026-05-03 23:50 -22.59938 -48.58079 6000 ft 147 kts 301°
2026-05-03 23:50 -22.59250 -48.59345 6000 ft 147 kts 301°
2026-05-03 23:50 -22.58734 -48.60295 6000 ft 147 kts 301°
2026-05-03 23:51 -22.58218 -48.61246 6000 ft 147 kts 301°
2026-05-03 23:51 -22.57703 -48.62195 6000 ft 147 kts 301°
2026-05-03 23:51 -22.57188 -48.63143 6000 ft 147 kts 301°
2026-05-03 23:51 -22.56672 -48.64092 6000 ft 147 kts 301°
2026-05-03 23:52 -22.56156 -48.65043 6000 ft 147 kts 301°
2026-05-03 23:52 -22.55641 -48.65988 6000 ft 147 kts 301°
2026-05-03 23:52 -22.55124 -48.66940 6000 ft 147 kts 301°
2026-05-03 23:52 -22.54608 -48.67889 6000 ft 147 kts 301°
2026-05-03 23:53 -22.54091 -48.68838 6000 ft 147 kts 301°
2026-05-03 23:53 -22.53575 -48.69788 6000 ft 147 kts 301°
2026-05-03 23:53 -22.53057 -48.70740 6000 ft 147 kts 301°
2026-05-03 23:53 -22.52540 -48.71691 6000 ft 147 kts 301°
2026-05-03 23:54 -22.52023 -48.72640 6000 ft 147 kts 301°
2026-05-03 23:54 -22.51505 -48.73591 6000 ft 147 kts 301°
2026-05-03 23:54 -22.50989 -48.74540 6000 ft 147 kts 301°
2026-05-03 23:54 -22.50470 -48.75492 6000 ft 146 kts 301°
2026-05-03 23:55 -22.49956 -48.76432 6000 ft 146 kts 301°
2026-05-03 23:55 -22.49437 -48.77378 6000 ft 146 kts 301°
2026-05-03 23:55 -22.48925 -48.78314 6000 ft 146 kts 301°
2026-05-03 23:55 -22.48408 -48.79259 6000 ft 146 kts 301°
2026-05-03 23:56 -22.47894 -48.80200 6000 ft 146 kts 301°
2026-05-03 23:56 -22.47379 -48.81143 6000 ft 146 kts 301°
2026-05-03 23:56 -22.46867 -48.82080 6000 ft 146 kts 301°
2026-05-03 23:56 -22.46351 -48.83026 6000 ft 146 kts 301°
2026-05-03 23:57 -22.45837 -48.83968 6000 ft 146 kts 301°
2026-05-03 23:57 -22.45324 -48.84908 6000 ft 146 kts 301°
2026-05-03 23:57 -22.44809 -48.85851 6000 ft 146 kts 301°
2026-05-03 23:57 -22.44298 -48.86789 6000 ft 146 kts 301°
2026-05-03 23:58 -22.43781 -48.87734 6000 ft 146 kts 301°
2026-05-03 23:58 -22.43266 -48.88678 6000 ft 146 kts 301°
2026-05-03 23:58 -22.42754 -48.89616 6000 ft 146 kts 301°
2026-05-03 23:58 -22.42238 -48.90560 6000 ft 146 kts 301°
2026-05-03 23:59 -22.41723 -48.91503 6000 ft 146 kts 301°
2026-05-03 23:59 -22.41210 -48.92442 6000 ft 146 kts 301°
2026-05-03 23:59 -22.40695 -48.93384 6000 ft 146 kts 301°
2026-05-03 23:59 -22.40179 -48.94327 6000 ft 146 kts 301°
2026-05-04 00:00 -22.39665 -48.95269 6000 ft 146 kts 301°
2026-05-04 00:00 -22.39149 -48.96212 6000 ft 146 kts 301°
2026-05-04 00:00 -22.38635 -48.97152 6000 ft 146 kts 301°
2026-05-04 00:00 -22.38119 -48.98097 6000 ft 146 kts 301°
2026-05-04 00:01 -22.37604 -48.99037 6000 ft 146 kts 301°
2026-05-04 00:01 -22.37088 -48.99979 6000 ft 146 kts 301°
2026-05-04 00:01 -22.36573 -49.00920 6000 ft 146 kts 301°
2026-05-04 00:01 -22.36058 -49.01859 6000 ft 146 kts 301°
2026-05-04 00:02 -22.35542 -49.02801 6000 ft 146 kts 301°
2026-05-04 00:02 -22.35027 -49.03742 6045 ft 147 kts 301°
2026-05-04 00:02 -22.34516 -49.04698 6009 ft 148 kts 298°
2026-05-04 00:02 -22.34265 -49.05772 5966 ft 148 kts 279°
2026-05-04 00:03 -22.34184 -49.06879 5981 ft 148 kts 276°
2026-05-04 00:03 -22.34143 -49.07985 5995 ft 148 kts 274°
2026-05-04 00:03 -22.34117 -49.09091 6001 ft 148 kts 274°
2026-05-04 00:03 -22.34097 -49.10195 6002 ft 148 kts 274°
2026-05-04 00:04 -22.34081 -49.11313 6001 ft 148 kts 273°
2026-05-04 00:04 -22.34066 -49.12417 6000 ft 148 kts 273°
2026-05-04 00:04 -22.34052 -49.13527 6000 ft 148 kts 273°
2026-05-04 00:04 -22.34037 -49.14635 6000 ft 148 kts 273°
2026-05-04 00:05 -22.34023 -49.15748 6000 ft 148 kts 273°
2026-05-04 00:05 -22.34006 -49.16857 6000 ft 148 kts 274°
2026-05-04 00:05 -22.33987 -49.17966 6000 ft 148 kts 274°
2026-05-04 00:05 -22.33967 -49.19080 6000 ft 148 kts 274°
2026-05-04 00:06 -22.33945 -49.20186 6000 ft 148 kts 274°
2026-05-04 00:06 -22.33922 -49.21299 6000 ft 148 kts 274°
2026-05-04 00:06 -22.33899 -49.22411 6000 ft 148 kts 274°
2026-05-04 00:06 -22.33876 -49.23515 6000 ft 148 kts 274°
2026-05-04 00:07 -22.33852 -49.24627 6000 ft 148 kts 274°
2026-05-04 00:07 -22.33828 -49.25741 6000 ft 148 kts 274°
2026-05-04 00:07 -22.33804 -49.26850 6000 ft 148 kts 274°
2026-05-04 00:07 -22.33780 -49.27962 6000 ft 148 kts 274°
2026-05-04 00:08 -22.33756 -49.29072 6000 ft 148 kts 274°
2026-05-04 00:08 -22.33732 -49.30183 6000 ft 148 kts 274°
2026-05-04 00:08 -22.33707 -49.31294 6000 ft 148 kts 274°
2026-05-04 00:08 -22.33683 -49.32407 6000 ft 148 kts 274°
2026-05-04 00:09 -22.33659 -49.33512 6000 ft 148 kts 274°
2026-05-04 00:09 -22.33634 -49.34627 6000 ft 148 kts 274°
2026-05-04 00:09 -22.33609 -49.35738 6000 ft 148 kts 274°
2026-05-04 00:09 -22.33585 -49.36851 6000 ft 148 kts 274°
2026-05-04 00:10 -22.33560 -49.37958 6000 ft 148 kts 274°
2026-05-04 00:10 -22.33535 -49.39075 6000 ft 148 kts 274°
2026-05-04 00:10 -22.33510 -49.40180 6000 ft 148 kts 274°
2026-05-04 00:10 -22.33485 -49.41298 6000 ft 148 kts 274°
2026-05-04 00:11 -22.33460 -49.42407 6000 ft 148 kts 274°
2026-05-04 00:11 -22.33434 -49.43520 6000 ft 148 kts 274°
2026-05-04 00:11 -22.33409 -49.44633 6000 ft 148 kts 274°
2026-05-04 00:11 -22.33384 -49.45741 6000 ft 148 kts 274°
2026-05-04 00:12 -22.33359 -49.46851 6000 ft 148 kts 274°
2026-05-04 00:12 -22.33333 -49.47965 6000 ft 148 kts 274°
2026-05-04 00:12 -22.33308 -49.49076 6000 ft 148 kts 274°
2026-05-04 00:12 -22.33282 -49.50190 6000 ft 148 kts 274°
2026-05-04 00:13 -22.33256 -49.51297 6000 ft 148 kts 274°
2026-05-04 00:13 -22.33230 -49.52412 6000 ft 148 kts 274°
2026-05-04 00:13 -22.33204 -49.53527 6000 ft 148 kts 274°
2026-05-04 00:13 -22.33178 -49.54635 6000 ft 148 kts 274°
2026-05-04 00:14 -22.33152 -49.55744 6000 ft 148 kts 274°
2026-05-04 00:14 -22.33126 -49.56863 6000 ft 148 kts 274°
2026-05-04 00:14 -22.33100 -49.57968 6000 ft 148 kts 274°
2026-05-04 00:14 -22.33073 -49.59085 6000 ft 148 kts 274°
2026-05-04 00:15 -22.33047 -49.60196 6000 ft 148 kts 274°
2026-05-04 00:15 -22.33021 -49.61309 6000 ft 148 kts 274°
2026-05-04 00:15 -22.32994 -49.62419 6000 ft 148 kts 274°
2026-05-04 00:15 -22.32968 -49.63534 6000 ft 148 kts 274°
2026-05-04 00:16 -22.32941 -49.64644 6000 ft 149 kts 274°
2026-05-04 00:16 -22.32914 -49.65758 6000 ft 149 kts 274°
2026-05-04 00:16 -22.32888 -49.66871 6000 ft 149 kts 274°
2026-05-04 00:16 -22.32860 -49.67983 6000 ft 149 kts 274°
2026-05-04 00:17 -22.32834 -49.69100 6000 ft 148 kts 274°
2026-05-04 00:17 -22.32807 -49.70205 6000 ft 148 kts 274°
2026-05-04 00:17 -22.32779 -49.71321 6000 ft 148 kts 274°
2026-05-04 00:17 -22.32752 -49.72427 6000 ft 148 kts 274°
2026-05-04 00:18 -22.32725 -49.73542 6000 ft 148 kts 274°
2026-05-04 00:18 -22.32698 -49.74652 6000 ft 148 kts 274°
2026-05-04 00:18 -22.32670 -49.75768 6000 ft 148 kts 274°
2026-05-04 00:18 -22.32643 -49.76874 6000 ft 148 kts 274°
2026-05-04 00:19 -22.32616 -49.77983 6000 ft 148 kts 274°
2026-05-04 00:19 -22.32588 -49.79099 6000 ft 148 kts 274°
2026-05-04 00:19 -22.32560 -49.80213 6000 ft 148 kts 274°
2026-05-04 00:19 -22.32532 -49.81319 6000 ft 148 kts 274°
2026-05-04 00:20 -22.32504 -49.82433 6000 ft 148 kts 274°
2026-05-04 00:20 -22.32476 -49.83543 6000 ft 148 kts 274°
2026-05-04 00:20 -22.32448 -49.84656 6000 ft 148 kts 274°
2026-05-04 00:20 -22.32420 -49.85768 6000 ft 148 kts 274°
2026-05-04 00:21 -22.32392 -49.86876 6000 ft 148 kts 274°
2026-05-04 00:21 -22.32364 -49.87989 6000 ft 148 kts 274°
2026-05-04 00:21 -22.32336 -49.89098 6000 ft 148 kts 274°
2026-05-04 00:21 -22.32307 -49.90203 6000 ft 148 kts 274°
2026-05-04 00:22 -22.32279 -49.91316 5988 ft 148 kts 273°
2026-05-04 00:22 -22.32211 -49.92436 6075 ft 150 kts 277°
2026-05-04 00:22 -22.32112 -49.93560 6016 ft 151 kts 278°
2026-05-04 00:22 -22.32009 -49.94676 5952 ft 149 kts 278°
2026-05-04 00:23 -22.31906 -49.95781 5966 ft 148 kts 278°
2026-05-04 00:23 -22.31803 -49.96882 5987 ft 147 kts 278°
2026-05-04 00:23 -22.31699 -49.97974 5999 ft 147 kts 278°
2026-05-04 00:23 -22.31595 -49.99074 6002 ft 147 kts 278°
2026-05-04 00:24 -22.31490 -50.00176 6002 ft 147 kts 278°
2026-05-04 00:24 -22.31385 -50.01271 6001 ft 147 kts 278°
2026-05-04 00:24 -22.31280 -50.02370 6000 ft 147 kts 278°
2026-05-04 00:24 -22.31174 -50.03470 6000 ft 147 kts 278°
2026-05-04 00:25 -22.31069 -50.04564 6000 ft 147 kts 278°
2026-05-04 00:25 -22.30963 -50.05667 6000 ft 147 kts 278°
2026-05-04 00:25 -22.30858 -50.06765 6000 ft 147 kts 278°
2026-05-04 00:25 -22.30752 -50.07867 6000 ft 147 kts 278°
2026-05-04 00:26 -22.30646 -50.08963 6000 ft 147 kts 278°
2026-05-04 00:26 -22.30541 -50.10059 6000 ft 147 kts 278°
2026-05-04 00:26 -22.30434 -50.11162 6000 ft 147 kts 278°
2026-05-04 00:26 -22.30329 -50.12256 6000 ft 147 kts 278°
2026-05-04 00:27 -22.30223 -50.13358 6000 ft 147 kts 278°
2026-05-04 00:27 -22.30117 -50.14454 6000 ft 147 kts 278°
2026-05-04 00:27 -22.30011 -50.15551 6000 ft 147 kts 278°
2026-05-04 00:27 -22.29904 -50.16646 6000 ft 147 kts 278°
2026-05-04 00:28 -22.29798 -50.17741 6000 ft 147 kts 278°
2026-05-04 00:28 -22.29692 -50.18831 6000 ft 147 kts 278°
2026-05-04 00:28 -22.29585 -50.19924 6000 ft 147 kts 278°
2026-05-04 00:28 -22.29479 -50.21020 6000 ft 147 kts 278°
2026-05-04 00:29 -22.29373 -50.22114 6000 ft 147 kts 278°
2026-05-04 00:29 -22.29266 -50.23207 6002 ft 146 kts 278°
2026-05-04 00:29 -22.29160 -50.24301 5987 ft 148 kts 278°
2026-05-04 00:29 -22.29052 -50.25406 5905 ft 150 kts 278°
2026-05-04 00:30 -22.28943 -50.26534 5809 ft 152 kts 278°
2026-05-04 00:30 -22.28833 -50.27669 5710 ft 153 kts 278°
2026-05-04 00:30 -22.28719 -50.28819 5611 ft 155 kts 278°
2026-05-04 00:30 -22.28602 -50.29974 5513 ft 156 kts 278°
2026-05-04 00:31 -22.28480 -50.31140 5414 ft 157 kts 278°
2026-05-04 00:31 -22.28355 -50.32312 5315 ft 158 kts 277°
2026-05-04 00:31 -22.28225 -50.33494 5216 ft 159 kts 277°
2026-05-04 00:31 -22.28093 -50.34678 5117 ft 159 kts 277°
2026-05-04 00:32 -22.27958 -50.35865 5018 ft 160 kts 277°
2026-05-04 00:32 -22.27825 -50.37054 4919 ft 160 kts 277°
2026-05-04 00:32 -22.27697 -50.38239 4821 ft 160 kts 276°
2026-05-04 00:32 -22.27573 -50.39426 4722 ft 160 kts 276°
2026-05-04 00:33 -22.27451 -50.40621 4623 ft 160 kts 276°
2026-05-04 00:33 -22.27210 -50.42999 4425 ft 160 kts 276°
2026-05-04 00:33 -22.27090 -50.44192 4326 ft 160 kts 276°
2026-05-04 00:34 -22.26970 -50.45378 4228 ft 160 kts 276°
2026-05-04 00:34 -22.26850 -50.46571 4129 ft 160 kts 276°
2026-05-04 00:34 -22.26729 -50.47767 4030 ft 160 kts 276°
2026-05-04 00:34 -22.26609 -50.48960 3931 ft 160 kts 276°
2026-05-04 00:35 -22.26489 -50.50148 3837 ft 160 kts 276°
2026-05-04 00:35 -22.26369 -50.51335 3795 ft 159 kts 276°
2026-05-04 00:35 -22.26250 -50.52518 3789 ft 158 kts 276°
2026-05-04 00:35 -22.26131 -50.53695 3794 ft 158 kts 276°
2026-05-04 00:36 -22.26013 -50.54867 3798 ft 158 kts 276°
2026-05-04 00:36 -22.25894 -50.56043 3800 ft 158 kts 276°
2026-05-04 00:36 -22.25774 -50.57227 3801 ft 158 kts 276°
2026-05-04 00:36 -22.25655 -50.58404 3800 ft 158 kts 276°
2026-05-04 00:37 -22.25535 -50.59581 3800 ft 158 kts 276°
2026-05-04 00:37 -22.25416 -50.60759 3800 ft 158 kts 276°
2026-05-04 00:37 -22.25297 -50.61933 3800 ft 158 kts 276°
2026-05-04 00:37 -22.25177 -50.63114 3800 ft 158 kts 276°
2026-05-04 00:38 -22.25057 -50.64291 3800 ft 158 kts 276°
2026-05-04 00:38 -22.24937 -50.65468 3800 ft 158 kts 276°
2026-05-04 00:38 -22.24818 -50.66642 3800 ft 158 kts 276°
2026-05-04 00:38 -22.24697 -50.67822 3800 ft 158 kts 276°
2026-05-04 00:39 -22.24577 -50.69003 3800 ft 158 kts 276°
2026-05-04 00:39 -22.24457 -50.70179 3800 ft 158 kts 276°
2026-05-04 00:39 -22.24336 -50.71360 3800 ft 158 kts 276°
2026-05-04 00:39 -22.24217 -50.72531 3800 ft 158 kts 276°
2026-05-04 00:40 -22.24096 -50.73715 3800 ft 158 kts 276°
2026-05-04 00:40 -22.23975 -50.74894 3800 ft 158 kts 276°
2026-05-04 00:40 -22.23854 -50.76070 3800 ft 158 kts 276°
2026-05-04 00:40 -22.23734 -50.77244 3800 ft 158 kts 276°
2026-05-04 00:41 -22.23613 -50.78424 3800 ft 158 kts 276°
2026-05-04 00:41 -22.23492 -50.79605 3800 ft 158 kts 276°
2026-05-04 00:41 -22.23372 -50.80777 3800 ft 158 kts 276°
2026-05-04 00:41 -22.23250 -50.81960 3800 ft 158 kts 276°
2026-05-04 00:42 -22.23129 -50.83137 3800 ft 158 kts 276°
2026-05-04 00:42 -22.23007 -50.84318 3800 ft 158 kts 276°
2026-05-04 00:42 -22.22887 -50.85491 3800 ft 158 kts 276°
2026-05-04 00:42 -22.22765 -50.86674 3800 ft 158 kts 276°
2026-05-04 00:43 -22.22643 -50.87850 3800 ft 158 kts 276°
2026-05-04 00:43 -22.22522 -50.89026 3800 ft 158 kts 276°
2026-05-04 00:43 -22.22400 -50.90207 3800 ft 158 kts 276°
2026-05-04 00:43 -22.22279 -50.91382 3800 ft 158 kts 276°
2026-05-04 00:44 -22.22157 -50.92558 3800 ft 158 kts 276°
2026-05-04 00:44 -22.22034 -50.93743 3800 ft 158 kts 276°
2026-05-04 00:44 -22.21912 -50.94920 3800 ft 158 kts 276°
2026-05-04 00:44 -22.21790 -50.96099 3800 ft 158 kts 276°
2026-05-04 00:45 -22.21668 -50.97274 3800 ft 158 kts 276°
2026-05-04 00:45 -22.21546 -50.98454 3800 ft 158 kts 276°
2026-05-04 00:45 -22.21423 -50.99633 3800 ft 158 kts 276°
2026-05-04 00:45 -22.21301 -51.00808 3800 ft 158 kts 276°
2026-05-04 00:46 -22.21179 -51.01983 3800 ft 158 kts 276°
2026-05-04 00:46 -22.21055 -51.03168 3800 ft 158 kts 276°
2026-05-04 00:46 -22.20933 -51.04344 3800 ft 158 kts 276°
2026-05-04 00:46 -22.20809 -51.05525 3800 ft 158 kts 276°
2026-05-04 00:47 -22.20687 -51.06702 3800 ft 158 kts 276°
2026-05-04 00:47 -22.20563 -51.07883 3800 ft 158 kts 276°
2026-05-04 00:47 -22.20441 -51.09058 3800 ft 158 kts 276°
2026-05-04 00:47 -22.20318 -51.10235 3800 ft 158 kts 276°
2026-05-04 00:48 -22.20194 -51.11417 3829 ft 159 kts 276°
2026-05-04 00:48 -22.20069 -51.12619 3870 ft 163 kts 276°
2026-05-04 00:48 -22.19941 -51.13838 3802 ft 164 kts 276°
2026-05-04 00:48 -22.19816 -51.15024 3734 ft 158 kts 276°
2026-05-04 00:49 -22.19693 -51.16197 3757 ft 157 kts 276°
2026-05-04 00:49 -22.19570 -51.17363 3785 ft 157 kts 276°
2026-05-04 00:49 -22.19448 -51.18531 3799 ft 157 kts 276°
2026-05-04 00:49 -22.19325 -51.19697 3803 ft 157 kts 276°
2026-05-04 00:50 -22.19202 -51.20869 3802 ft 157 kts 276°
2026-05-04 00:50 -22.19079 -51.22037 3801 ft 157 kts 276°
2026-05-04 00:50 -22.19098 -51.23209 3790 ft 157 kts 261°
2026-05-04 00:50 -22.19367 -51.24334 3762 ft 153 kts 253°
2026-05-04 00:51 -22.19693 -51.25418 3777 ft 150 kts 252°
2026-05-04 00:51 -22.20004 -51.26485 3623 ft 146 kts 252°
2026-05-04 00:51 -22.20296 -51.27503 3255 ft 140 kts 253°
2026-05-04 00:51 -22.20503 -51.28509 2987 ft 135 kts 261°
2026-05-04 00:52 -22.20628 -51.29471 2880 ft 125 kts 262°
2026-05-04 00:52 -22.20777 -51.30356 2817 ft 118 kts 256°
2026-05-04 00:52 -22.21000 -51.31137 2798 ft 99 kts 250°
2026-05-04 00:52 -22.21218 -51.31787 2695 ft 82 kts 249°
2026-05-04 00:53 -22.21403 -51.32266 2606 ft 60 kts 248°
2026-05-04 00:53 -22.21561 -51.32650 2413 ft 54 kts 247°
2026-05-04 00:53 -22.21733 -51.33051 2193 ft 64 kts 244°
2026-05-04 00:53 -22.21972 -51.33520 1995 ft 75 kts 242°
2026-05-04 00:54 -22.22171 -51.33912 1943 ft 39 kts 246°
2026-05-04 00:54 -22.22274 -51.34106 1827 ft 26 kts 249°
2026-05-04 00:54 -22.22342 -51.34256 1773 ft 23 kts 249°
2026-05-04 00:54 -22.22410 -51.34411 1722 ft 21 kts 244°
2026-05-04 00:55 -22.22451 -51.34507 1689 ft 10 kts 243°
2026-05-04 00:55 -22.22483 -51.34587 1689 ft 13 kts 240°
2026-05-04 00:55 -22.22527 -51.34674 1690 ft 11 kts 239°
2026-05-04 00:55 -22.22536 -51.34764 1685 ft 14 kts 252°
2026-05-04 00:56 -22.22498 -51.34860 1672 ft 12 kts 236°
2026-05-04 00:56 -22.22483 -51.34880 1666 ft 0 kts 224°
2026-05-04 00:56 -22.22486 -51.34883 1667 ft 0 kts 235°
2026-05-04 00:56 -22.22493 -51.34895 1667 ft 3 kts 244°
2026-05-04 00:57 -22.22494 -51.34898 1666 ft 0 kts 248°